Location: Bauerbach
(50.4985°N, 10.3912°E)
Time: 14:46:51
(UTC+00:00)

Cosmos 2082 Rocket - Pass Details

Date: 13 January 2026
Orbit: 832 x 853 km, 71.0° (Epoch: 10 February)

Event Time Altitude Azimuth Distance (km) Brightness Sun altitude
Exits shadow 05:23:15 12° 334° (NNW) 2,324 4.1 -17.0°
Maximum altitude 05:28:31 70° 58° (ENE) 901 2.5 -16.2°
Drops below altitude 10° 05:34:10 10° 142° (SE) 2,469 5.4 -15.3°
Sets 05:36:38 0° 145° (SE) 3,403 6.2 -14.9°
